Location: Unspecified
(0.0000°N, 0.0000°E)
Time: 09:30:54
(UTC+02:00)

Coronas F rocket - Visible Passes

Search period start: 01 September 2014 00:00
Search period end: 11 September 2014 00:00
Orbit: 395 x 417 km, 82.5° (Epoch: 31 August)

Date Brightness Start Highest point End Pass type
(mag) Time Alt. Az. Time Alt. Az. Time Alt. Az.
01 Sep 5.2 21:29:38 10° WSW 21:31:16 13° W 21:32:53 10° NW visible
02 Sep 1.8 20:39:05 10° S 20:42:19 82° W 20:45:30 10° N visible
04 Sep 3.0 20:34:22 10° SSW 20:37:29 46° W 20:40:33 10° NNW visible
06 Sep 6.0 07:23:25 10° E 07:23:49 10° E 07:24:12 10° E visible
06 Sep 4.3 20:29:47 10° SSW 20:32:34 27° W 20:35:20 10° NNW visible
08 Sep 5.2 07:16:47 10° NE 07:18:50 16° E 07:20:54 10° SE visible
08 Sep 5.2 20:25:23 10° SW 20:27:35 17° W 20:29:46 10° NW visible
10 Sep 4.3 07:11:07 10° NNE 07:13:48 26° E 07:16:30 10° SE visible
10 Sep 5.9 20:21:35 10° WSW 20:22:31 11° W 20:23:26 10° WNW visible
